NORTHERN NASSAU  -  Areal Flood Advisory Areal Flood Advisory     Flash Flood Watch Flash Flood Watch     Rip Current Statement Rip Current Statement        NORTHERN QUEENS  -  Areal Flood Advisory Areal Flood Advisory     Flash Flood Watch Flash Flood Watch     Rip Current Statement Rip Current Statement        SOUTHERN NASSAU  -  Areal Flood Advisory Areal Flood Advisory     Flash Flood Watch Flash Flood Watch     Rip Current Statement Rip Current Statement        SOUTHERN QUEENS  -  Areal Flood Advisory Areal Flood Advisory     Flash Flood Watch Flash Flood Watch     Rip Current Statement Rip Current Statement        NORTHEAST SUFFOLK  -  Rip Current Statement Rip Current Statement        NORTHWEST SUFFOLK  -  Rip Current Statement Rip Current Statement        SOUTHEAST SUFFOLK  -  Rip Current Statement Rip Current Statement        SOUTHWEST SUFFOLK  -  Rip Current Statement Rip Current Statement      

Active alerts

Northern Queens
  Details for Northern Queens Areal Flood Advisory  +2 additional alerts
Southern Queens
  Details for Southern Queens Areal Flood Advisory  +2 additional alerts
Northern Nassau
  Details for Northern Nassau Areal Flood Advisory  +2 additional alerts
Southern Nassau
  Details for Southern Nassau Areal Flood Advisory  +2 additional alerts
Northwest Suffolk
  Details for Northwest Suffolk Rip Current Statement
Southwest Suffolk
  Details for Southwest Suffolk Rip Current Statement
Northeast Suffolk
  Details for Northeast Suffolk Rip Current Statement
Southeast Suffolk
  Details for Southeast Suffolk Rip Current Statement


WXM80 ListenWXM80 Stop

You find our weather info also at:

UK Metoffice

WeatherCloud

Weather Underground

Northeastern Weather Network

AWEKAS

Citizen Weather Observer Program (CWOP)

HAMweather, WeatherForYou, PWS Weather


Weather Underground History page Text

Daily Summary for February 23, 2018 Units:  Metric    English   Both
« Previous Day
Next Day »
Daily Weekly Monthly Yearly Custom
  High: Low: Average:
Temperature: 4.1 °C 2 °C 2.8 °C
Dew Point: 3.6 °C 0.8 °C 1.9 °C
Humidity: 98 % 89 % 94 %
Wind Speed: 15.1 km/h 0 km/h 6 km/h
Wind Gust: 22.2 km/h - -
Wind:- - East
Pressure: 1030.4 hPa 1012.8 hPa -
Precipitation: 2.03 mm    
Historical Graphs
 
 
Tabular Data for February 23, 2018
Time Temperature Dew Point Pressure Wind Wind Speed Wind Gust Humidity Rainfall Rate (Hourly)
00:03 2.3 °C 1.3 °C 1030 hPa NNE 10.3 km/h 20.4 km/h 93 % 0 mm
00:08 2.3 °C 1.3 °C 1030 hPa NE 7.4 km/h 13 km/h 93 % 0 mm
00:13 2.3 °C 1.3 °C 1029.7 hPa ENE 10.6 km/h 18.5 km/h 93 % 0 mm
00:18 2.3 °C 1.3 °C 1030 hPa ENE 5.8 km/h 11.3 km/h 93 % 0 mm
00:23 2.3 °C 1.3 °C 1030 hPa NE 10.1 km/h 14.8 km/h 93 % 0 mm
00:28 2.3 °C 1.3 °C 1030 hPa ENE 4.3 km/h 18.5 km/h 93 % 0 mm
00:33 2.3 °C 1.3 °C 1030 hPa NE 6.9 km/h 11.3 km/h 93 % 0 mm
00:38 2.3 °C 1.3 °C 1030 hPa NE 8 km/h 13 km/h 93 % 0 mm
00:44 2.2 °C 1.2 °C 1030 hPa East 12.4 km/h 18.5 km/h 93 % 0 mm
00:48 2.2 °C 1.2 °C 1030.4 hPa ENE 9.3 km/h 14.8 km/h 93 % 0 mm
00:53 2.2 °C 1 °C 1030 hPa ENE 9 km/h 18.5 km/h 92 % 0 mm
00:58 2.2 °C 1 °C 1030.4 hPa NE 5.8 km/h 9.3 km/h 92 % 0 mm
01:03 2.2 °C 1.2 °C 1030 hPa ENE 8 km/h 17.7 km/h 93 % 0 mm
01:08 2.1 °C 0.9 °C 1030 hPa ENE 12.4 km/h 16.1 km/h 92 % 0 mm
01:13 2.1 °C 0.9 °C 1030.4 hPa ENE 7.6 km/h 19.3 km/h 92 % 0 mm
01:18 2.1 °C 0.9 °C 1030.4 hPa NE 6.3 km/h 11.1 km/h 92 % 0 mm
01:23 2.1 °C 0.9 °C 1030 hPa ENE 9.3 km/h 13 km/h 92 % 0 mm
01:28 2.1 °C 0.9 °C 1030 hPa ENE 12.7 km/h 19.3 km/h 92 % 0 mm
01:33 2.1 °C 0.9 °C 1030 hPa East 10.1 km/h 22.2 km/h 92 % 0 mm
01:38 2.1 °C 0.9 °C 1030 hPa ENE 8.4 km/h 16.7 km/h 92 % 0 mm
01:43 2.1 °C 0.9 °C 1030 hPa ENE 10.1 km/h 14.8 km/h 92 % 0 mm
01:48 2.1 °C 0.9 °C 1030 hPa ENE 10.3 km/h 16.7 km/h 92 % 0 mm
01:53 2.1 °C 0.9 °C 1030 hPa NE 4.7 km/h 8 km/h 92 % 0 mm
01:58 2.1 °C 0.9 °C 1030.4 hPa ENE 9 km/h 13 km/h 92 % 0 mm
02:03 2.1 °C 0.9 °C 1030.4 hPa NE 8 km/h 14.8 km/h 92 % 0 mm
02:09 2.1 °C 0.9 °C 1030 hPa ENE 9.5 km/h 14.8 km/h 92 % 0 mm
02:14 2.1 °C 0.9 °C 1030 hPa ENE 6 km/h 16.7 km/h 92 % 0 mm
02:19 2.1 °C 0.9 °C 1030 hPa ENE 9.8 km/h 16.7 km/h 92 % 0 mm
02:24 2 °C 0.8 °C 1029.7 hPa ENE 7.6 km/h 14.8 km/h 92 % 0 mm
02:29 2.1 °C 0.9 °C 1030 hPa ENE 6.1 km/h 11.1 km/h 92 % 0 mm
02:34 2.1 °C 0.9 °C 1029.7 hPa ENE 10.8 km/h 14.8 km/h 92 % 0 mm
02:39 2.1 °C 0.9 °C 1029.3 hPa ENE 13.7 km/h 18.5 km/h 92 % 0 mm
02:44 2.1 °C 0.9 °C 1029 hPa ENE 10.1 km/h 14.8 km/h 92 % 0 mm
02:49 2.1 °C 0.9 °C 1029.3 hPa ENE 9.7 km/h 13 km/h 92 % 0 mm
02:54 2.1 °C 0.9 °C 1029 hPa ENE 11.1 km/h 16.1 km/h 92 % 0 mm
02:59 2.1 °C 0.9 °C 1028.7 hPa ENE 8.7 km/h 16.7 km/h 92 % 0 mm
03:04 2.1 °C 0.9 °C 1029 hPa NE 10 km/h 14.8 km/h 92 % 0 mm
03:09 2.1 °C 0.9 °C 1029 hPa East 8.5 km/h 11.3 km/h 92 % 0 mm
03:14 2.2 °C 1 °C 1029.3 hPa ENE 6.1 km/h 8 km/h 92 % 0 mm
03:19 2.2 °C 1 °C 1029.3 hPa East 6.8 km/h 11.3 km/h 92 % 0 mm
03:24 2.2 °C 1 °C 1029 hPa ENE 7.1 km/h 11.3 km/h 92 % 0 mm
03:29 2.2 °C 1.1 °C 1029 hPa East 6.8 km/h 13 km/h 92 % 0 mm
03:34 2.2 °C 1.1 °C 1029 hPa ENE 6.3 km/h 11.3 km/h 92 % 0 mm
03:39 2.2 °C 1.2 °C 1029.3 hPa ENE 6.4 km/h 11.1 km/h 93 % 0 mm
03:44 2.2 °C 1.1 °C 1029.3 hPa ENE 8.7 km/h 11.1 km/h 92 % 0 mm
03:49 2.2 °C 1.1 °C 1029.3 hPa NE 8 km/h 13 km/h 92 % 0 mm
03:54 2.2 °C 1.1 °C 1029.3 hPa ENE 6.9 km/h 13 km/h 92 % 0 mm
04:00 2.2 °C 1.2 °C 1029.3 hPa ENE 5.8 km/h 7.4 km/h 93 % 0 mm
04:05 2.2 °C 1.1 °C 1029.3 hPa ENE 8 km/h 11.3 km/h 92 % 0 mm
04:10 2.2 °C 1.1 °C 1029 hPa East 6.6 km/h 8 km/h 92 % 0 mm
04:15 2.2 °C 1.1 °C 1029.3 hPa ENE 10 km/h 13 km/h 92 % 0 mm
04:20 2.2 °C 1.1 °C 1029.7 hPa ENE 7.9 km/h 11.3 km/h 92 % 0 mm
04:25 2.2 °C 1.1 °C 1029.7 hPa ENE 9.8 km/h 13 km/h 92 % 0 mm
04:30 2.2 °C 1.1 °C 1029.3 hPa ENE 8 km/h 11.1 km/h 92 % 0 mm
04:35 2.2 °C 1.1 °C 1029.7 hPa ENE 7.1 km/h 11.1 km/h 92 % 0 mm
04:40 2.2 °C 1.2 °C 1029.7 hPa ENE 10.9 km/h 14.8 km/h 93 % 0 mm
04:45 2.2 °C 1.2 °C 1029.3 hPa ENE 7.2 km/h 11.1 km/h 93 % 0 mm
04:50 2.2 °C 1.1 °C 1029.7 hPa ENE 6.4 km/h 7.4 km/h 92 % 0 mm
04:55 2.2 °C 1.1 °C 1029.7 hPa ENE 7.1 km/h 7.4 km/h 92 % 0 mm
05:00 2.2 °C 1.2 °C 1029.3 hPa ENE 7.6 km/h 11.1 km/h 93 % 0 mm
05:05 2.2 °C 1.2 °C 1029.3 hPa ENE 8.2 km/h 12.9 km/h 93 % 0 mm
05:10 2.3 °C 1.3 °C 1029.7 hPa ENE 11.3 km/h 16.7 km/h 93 % 0 mm
05:15 2.2 °C 1.1 °C 1029.3 hPa ENE 13 km/h 16.7 km/h 92 % 0 mm
05:20 2.2 °C 1.1 °C 1029.3 hPa ENE 11.3 km/h 16.1 km/h 92 % 0 mm
05:25 2.2 °C 1.1 °C 1029.3 hPa ENE 9.7 km/h 16.1 km/h 92 % 0 mm
05:30 2.2 °C 1 °C 1029.3 hPa ENE 9.7 km/h 14.5 km/h 92 % 0 mm
05:35 2.2 °C 1 °C 1029.3 hPa ENE 9.2 km/h 18.5 km/h 92 % 0 mm
05:40 2.2 °C 1 °C 1029.3 hPa ENE 11.3 km/h 14.5 km/h 92 % 0 mm
05:45 2.2 °C 1 °C 1029.3 hPa ENE 9.7 km/h 16.1 km/h 92 % 0 mm
05:50 2.2 °C 1 °C 1029.3 hPa ENE 9.7 km/h 19.3 km/h 92 % 0 mm
05:55 2.1 °C 0.8 °C 1029 hPa East 10.6 km/h 12.9 km/h 91 % 0 mm
06:01 2.1 °C 0.8 °C 1029 hPa East 9.5 km/h 14.8 km/h 91 % 0 mm
06:06 2.1 °C 0.8 °C 1029 hPa East 9.2 km/h 13 km/h 91 % 0 mm
06:11 2.1 °C 0.8 °C 1029 hPa ENE 9.3 km/h 11.3 km/h 91 % 0 mm
06:16 2.1 °C 0.8 °C 1029.3 hPa ENE 11.3 km/h 16.1 km/h 91 % 0 mm
06:21 2.1 °C 0.8 °C 1029 hPa ENE 10.1 km/h 16.7 km/h 91 % 0 mm
06:26 2.2 °C 0.8 °C 1029 hPa East 10.5 km/h 13 km/h 91 % 0 mm
06:31 2.2 °C 0.8 °C 1029.3 hPa East 11.3 km/h 14.8 km/h 91 % 0 mm
06:36 2.2 °C 0.8 °C 1029 hPa ENE 8.5 km/h 14.8 km/h 91 % 0 mm
06:41 2.2 °C 0.8 °C 1029 hPa ENE 8 km/h 16.7 km/h 91 % 0 mm
06:46 2.2 °C 0.8 °C 1029 hPa ENE 8.4 km/h 13 km/h 91 % 0 mm
06:51 2.2 °C 0.8 °C 1029 hPa ENE 14.5 km/h 18.5 km/h 91 % 0 mm
06:56 2.2 °C 0.8 °C 1029 hPa ENE 14.2 km/h 19.3 km/h 91 % 0 mm
07:01 2.2 °C 0.8 °C 1029 hPa ENE 12.1 km/h 16.1 km/h 91 % 0 mm
07:06 2.2 °C 0.9 °C 1029 hPa ENE 10.1 km/h 13 km/h 91 % 0 mm
07:11 2.2 °C 0.9 °C 1029 hPa ENE 12.4 km/h 14.5 km/h 91 % 0 mm
07:17 2.3 °C 0.9 °C 1029 hPa East 13.8 km/h 18.5 km/h 91 % 0 mm
07:22 2.3 °C 0.9 °C 1029 hPa ENE 10.8 km/h 18.5 km/h 91 % 0 mm
07:27 2.3 °C 1.1 °C 1029 hPa East 11.9 km/h 16.7 km/h 92 % 0 mm
07:32 2.2 °C 1.1 °C 1029 hPa ENE 12.1 km/h 18.5 km/h 92 % 0 mm
07:37 2.2 °C 1.1 °C 1029 hPa ENE 12.4 km/h 16.7 km/h 92 % 0 mm
07:42 2.2 °C 1.1 °C 1029 hPa ENE 11.3 km/h 13 km/h 92 % 0 mm
07:47 2.2 °C 1.1 °C 1029 hPa East 12.1 km/h 18.5 km/h 92 % 0 mm
07:52 2.2 °C 1.1 °C 1029 hPa ENE 15.1 km/h 18.5 km/h 92 % 0 mm
07:57 2.3 °C 0.9 °C 1028.3 hPa ENE 15 km/h 20.4 km/h 91 % 0 mm
08:02 2.3 °C 1 °C 1028.7 hPa NE 11.9 km/h 13 km/h 91 % 0 mm
08:07 2.4 °C 1.1 °C 1028.7 hPa East 14.6 km/h 14.8 km/h 91 % 0 mm
08:13 2.4 °C 1.1 °C 1028.7 hPa NE 11.9 km/h 16.7 km/h 91 % 0 mm
08:18 2.4 °C 1.1 °C 1029 hPa East 14.8 km/h 22.2 km/h 91 % 0 mm
08:23 2.4 °C 1.1 °C 1028.7 hPa East 13.5 km/h 16.7 km/h 91 % 0 mm
08:28 2.4 °C 1.1 °C 1028.7 hPa East 11.9 km/h 13 km/h 91 % 0 mm
08:33 2.4 °C 1.1 °C 1029 hPa ENE 11.9 km/h 16.7 km/h 91 % 0 mm
08:38 2.5 °C 1.2 °C 1029 hPa East 11.4 km/h 14.8 km/h 91 % 0 mm
08:43 2.5 °C 1.2 °C 1028.3 hPa East 11.3 km/h 14.8 km/h 91 % 0 mm
08:48 2.6 °C 1.2 °C 1028.3 hPa East 11.1 km/h 16.7 km/h 91 % 0 mm
08:53 2.6 °C 1.3 °C 1029 hPa East 8.7 km/h 11.1 km/h 91 % 0 mm
08:58 2.7 °C 1.3 °C 1028.3 hPa ENE 9.8 km/h 14.8 km/h 91 % 0 mm
09:03 2.7 °C 1.4 °C 1028.7 hPa East 10 km/h 13 km/h 91 % 0 mm
09:08 2.7 °C 1.2 °C 1028.3 hPa East 8.4 km/h 14.5 km/h 90 % 0 mm
09:13 2.7 °C 1.2 °C 1028.3 hPa East 7.6 km/h 11.1 km/h 90 % 0 mm
09:18 2.8 °C 1.3 °C 1028.7 hPa East 8 km/h 11.1 km/h 90 % 0 mm
09:23 2.8 °C 1.3 °C 1028.7 hPa ENE 8.5 km/h 13 km/h 90 % 0 mm
09:28 2.8 °C 1.3 °C 1028.7 hPa ENE 6.4 km/h 9.3 km/h 90 % 0 mm
09:33 2.8 °C 1.3 °C 1028.7 hPa ENE 9 km/h 12.9 km/h 90 % 0 mm
09:38 2.8 °C 1.3 °C 1028.7 hPa ENE 4.3 km/h 6.4 km/h 90 % 0 mm
09:44 2.8 °C 1.3 °C 1028.7 hPa East 8.9 km/h 11.3 km/h 90 % 0 mm
09:49 2.8 °C 1.3 °C 1028.3 hPa East 6.1 km/h 9.3 km/h 90 % 0 mm
09:54 2.9 °C 1.4 °C 1028.7 hPa East 5.5 km/h 9.3 km/h 90 % 0 mm
09:59 2.9 °C 1.4 °C 1028.7 hPa ENE 4.2 km/h 7.4 km/h 90 % 0 mm
10:04 2.9 °C 1.3 °C 1028.7 hPa East 2.3 km/h 7.4 km/h 89 % 0 mm
10:09 2.9 °C 1.3 °C 1028.7 hPa East 4.7 km/h 9.3 km/h 89 % 0 mm
10:14 2.9 °C 1.3 °C 1029 hPa East 3.9 km/h 5.6 km/h 89 % 0 mm
10:19 3 °C 1.5 °C 1028.3 hPa East 4 km/h 5.6 km/h 90 % 0 mm
10:24 3 °C 1.5 °C 1028.3 hPa ENE 6.3 km/h 9.3 km/h 90 % 0 mm
10:29 3.1 °C 1.7 °C 1028 hPa ENE 6.3 km/h 11.3 km/h 91 % 0 mm
10:34 3.1 °C 1.7 °C 1028 hPa ENE 10 km/h 13 km/h 91 % 0 mm
10:39 2.9 °C 1.6 °C 1027.7 hPa East 7.1 km/h 9.7 km/h 91 % 0 mm
10:44 2.9 °C 1.8 °C 1027.7 hPa ENE 9.3 km/h 11.3 km/h 92 % 0 mm
10:49 2.9 °C 1.7 °C 1027.7 hPa East 6.3 km/h 11.1 km/h 92 % 0 mm
10:54 2.8 °C 1.7 °C 1027.7 hPa ENE 7.7 km/h 13 km/h 92 % 0 mm
10:59 2.7 °C 1.7 °C 1027.7 hPa ENE 10.6 km/h 14.8 km/h 93 % 0 mm
11:04 2.6 °C 1.6 °C 1027.7 hPa ENE 7.6 km/h 13 km/h 93 % 0 mm
11:09 2.6 °C 1.6 °C 1027.3 hPa ENE 11.3 km/h 16.7 km/h 93 % 0 mm
11:14 2.6 °C 1.7 °C 1027.3 hPa East 9.7 km/h 14.8 km/h 94 % 0 mm
11:20 2.7 °C 1.8 °C 1027.3 hPa ENE 6.3 km/h 6.4 km/h 94 % 0 mm
11:25 2.7 °C 1.8 °C 1027.3 hPa ENE 7.7 km/h 13 km/h 94 % 0 mm
11:30 2.7 °C 1.8 °C 1027 hPa ENE 10 km/h 13 km/h 94 % 0 mm
11:35 2.6 °C 1.7 °C 1026.6 hPa NE 8 km/h 14.5 km/h 94 % 0 mm
11:40 2.7 °C 1.8 °C 1026.6 hPa ENE 7.7 km/h 13 km/h 94 % 0 mm
11:45 2.7 °C 1.8 °C 1026.6 hPa ENE 5.6 km/h 8 km/h 94 % 0 mm
11:50 2.7 °C 1.8 °C 1026.6 hPa ENE 10.8 km/h 14.8 km/h 94 % 0 mm
11:55 2.7 °C 1.8 °C 1026.3 hPa ENE 11.4 km/h 16.7 km/h 94 % 0 mm
12:00 2.6 °C 1.9 °C 1026.3 hPa ENE 6.9 km/h 13 km/h 95 % 0 mm
12:05 2.6 °C 1.9 °C 1026.3 hPa ENE 7.2 km/h 11.1 km/h 95 % 0 mm
12:10 2.7 °C 1.9 °C 1026.3 hPa ENE 4.7 km/h 7.4 km/h 95 % 0 mm
12:15 2.7 °C 2 °C 1026 hPa ENE 8.2 km/h 14.8 km/h 95 % 0 mm
12:20 2.7 °C 2 °C 1025.6 hPa ENE 5.8 km/h 11.1 km/h 95 % 0 mm
12:25 2.8 °C 2.1 °C 1025.3 hPa ENE 8.2 km/h 13 km/h 95 % 0 mm
12:30 2.8 °C 2.1 °C 1025.3 hPa East 6.4 km/h 11.1 km/h 95 % 0 mm
12:35 2.8 °C 2.1 °C 1024.9 hPa ENE 7.9 km/h 14.8 km/h 95 % 0 mm
12:40 2.9 °C 2.2 °C 1024.9 hPa ENE 8.7 km/h 11.1 km/h 95 % 0 mm
12:46 2.9 °C 2.2 °C 1024.9 hPa ENE 9.7 km/h 14.5 km/h 95 % 0 mm
12:51 2.9 °C 2.2 °C 1024.9 hPa ENE 9.7 km/h 19.3 km/h 95 % 0 mm
12:56 2.9 °C 2.2 °C 1024.6 hPa ENE 11.3 km/h 16.1 km/h 95 % 0 mm
13:01 2.9 °C 2.2 °C 1024.6 hPa ENE 12.1 km/h 14.8 km/h 95 % 0 mm
13:06 2.9 °C 2.2 °C 1024.6 hPa NE 7.1 km/h 13 km/h 95 % 0 mm
13:11 2.9 °C 2.2 °C 1024.6 hPa NE 9.8 km/h 14.8 km/h 95 % 0 mm
13:16 2.9 °C 2.2 °C 1024.3 hPa ENE 12.1 km/h 16.7 km/h 95 % 0 mm
13:21 2.9 °C 2.2 °C 1023.9 hPa ENE 10.6 km/h 16.7 km/h 95 % 0 mm
13:26 2.9 °C 2.2 °C 1023.6 hPa ENE 10.3 km/h 16.7 km/h 95 % 0 mm
13:31 2.9 °C 2.2 °C 1023.6 hPa ENE 10.6 km/h 18.5 km/h 95 % 0 mm
13:36 2.9 °C 2.2 °C 1023.6 hPa East 8.2 km/h 14.5 km/h 95 % 0 mm
13:41 2.9 °C 2.2 °C 1023.2 hPa ENE 8.7 km/h 13 km/h 95 % 0 mm
13:46 3 °C 2.3 °C 1023.2 hPa ENE 6.3 km/h 9.3 km/h 95 % 0 mm
13:51 3.1 °C 2.3 °C 1023.6 hPa East 7.1 km/h 11.1 km/h 95 % 0 mm
13:56 3.1 °C 2.3 °C 1023.6 hPa ENE 6.1 km/h 11.1 km/h 95 % 0 mm
14:02 3.1 °C 2.3 °C 1023.6 hPa East 10.1 km/h 14.8 km/h 95 % 0 mm
14:07 3 °C 2.3 °C 1022.9 hPa East 9.3 km/h 13 km/h 95 % 0 mm
14:12 3.1 °C 2.3 °C 1022.9 hPa ENE 8 km/h 11.1 km/h 95 % 0 mm
14:17 3.1 °C 2.3 °C 1022.9 hPa ENE 10.6 km/h 14.8 km/h 95 % 0 mm
14:22 3 °C 2.3 °C 1022.9 hPa East 7.9 km/h 11.3 km/h 95 % 0 mm
14:27 2.9 °C 2.4 °C 1022.9 hPa ENE 8 km/h 11.1 km/h 96 % 0 mm
14:32 2.9 °C 2.4 °C 1022.9 hPa ENE 11.6 km/h 16.7 km/h 96 % 0 mm
14:37 2.9 °C 2.4 °C 1022.9 hPa ENE 5 km/h 7.4 km/h 96 % 0 mm
14:42 2.9 °C 2.4 °C 1022.9 hPa ENE 5.5 km/h 8 km/h 96 % 0 mm
14:47 2.9 °C 2.4 °C 1022.6 hPa ENE 7.2 km/h 13 km/h 96 % 0 mm
14:52 2.9 °C 2.4 °C 1021.9 hPa East 9 km/h 13 km/h 96 % 0 mm
14:57 3 °C 2.4 °C 1021.6 hPa East 6.3 km/h 13 km/h 96 % 0 mm
15:02 3.1 °C 2.5 °C 1021.9 hPa East 6.9 km/h 11.1 km/h 96 % 0 mm
15:07 3.1 °C 2.5 °C 1021.9 hPa ENE 7.2 km/h 11.1 km/h 96 % 0 mm
15:12 3.1 °C 2.5 °C 1021.9 hPa ENE 3.9 km/h 5.6 km/h 96 % 0 mm
15:17 3.1 °C 2.6 °C 1021.6 hPa East 9.3 km/h 11.1 km/h 96 % 0 mm
15:22 3.1 °C 2.6 °C 1021.6 hPa East 6.6 km/h 9.7 km/h 96 % 0 mm
15:27 3.1 °C 2.6 °C 1020.9 hPa East 2.1 km/h 7.4 km/h 96 % 0 mm
15:32 3.2 °C 2.6 °C 1020.9 hPa East 4 km/h 7.4 km/h 96 % 0 mm
15:37 3.2 °C 2.6 °C 1020.5 hPa ENE 5 km/h 7.4 km/h 96 % 0 mm
15:42 3.2 °C 2.8 °C 1019.9 hPa East 8.2 km/h 11.1 km/h 97 % 0 mm
15:48 3.2 °C 2.8 °C 1020.2 hPa ENE 5.5 km/h 8 km/h 97 % 0 mm
15:53 3.3 °C 2.8 °C 1021.2 hPa ENE 0.6 km/h 1.6 km/h 97 % 0 mm
15:58 3.3 °C 2.8 °C 1021.6 hPa NE 0.5 km/h 5.6 km/h 97 % 0 mm
16:03 3.3 °C 2.8 °C 1021.2 hPa NE 1.4 km/h 1.9 km/h 97 % 0 mm
16:08 3.3 °C 2.8 °C 1020.9 hPa ENE 4.5 km/h 5.6 km/h 97 % 0 mm
16:13 3.3 °C 2.8 °C 1020.9 hPa ENE 3.9 km/h 5.6 km/h 97 % 0 mm
16:18 3.2 °C 2.8 °C 1020.5 hPa ENE 5.1 km/h 7.4 km/h 97 % 0 mm
16:23 3.2 °C 2.8 °C 1020.5 hPa ENE 4.3 km/h 5.6 km/h 97 % 0 mm
16:28 3.2 °C 2.7 °C 1020.2 hPa ENE 2.6 km/h 5.6 km/h 97 % 0 mm
16:33 3.2 °C 2.7 °C 1019.9 hPa ENE 4.7 km/h 7.4 km/h 97 % 0 mm
16:38 3.2 °C 2.8 °C 1019.9 hPa East 2.6 km/h 5.6 km/h 97 % 0 mm
16:43 3.2 °C 2.8 °C 1020.2 hPa East 1.4 km/h 3.7 km/h 97 % 0 mm
16:48 3.2 °C 2.8 °C 1020.2 hPa ENE 2.6 km/h 5.6 km/h 97 % 0 mm
16:53 3.2 °C 2.8 °C 1020.2 hPa NNE 3.5 km/h 5.6 km/h 97 % 0 mm
16:58 3.3 °C 2.8 °C 1020.5 hPa NNE 1.3 km/h 3.7 km/h 97 % 0 mm
17:03 3.3 °C 2.8 °C 1020.2 hPa NNE 1.6 km/h 3.7 km/h 97 % 0 mm
17:08 3.3 °C 2.8 °C 1019.9 hPa Calm     97 % 0 mm
17:13 3.3 °C 2.8 °C 1019.9 hPa Calm     97 % 0 mm
17:18 3.3 °C 2.8 °C 1019.5 hPa NE 1.1 km/h 5.6 km/h 97 % 0 mm
17:23 3.3 °C 2.8 °C 1019.2 hPa NE 1.9 km/h 1.9 km/h 97 % 0 mm
17:28 3.3 °C 2.8 °C 1019.2 hPa Calm   3.7 km/h 97 % 0 mm
17:33 3.3 °C 2.8 °C 1018.8 hPa NE 0.2 km/h 1.9 km/h 97 % 0 mm
17:39 3.3 °C 2.8 °C 1018.8 hPa Calm   1.9 km/h 97 % 0 mm
17:44 3.3 °C 2.8 °C 1018.5 hPa Calm   1.9 km/h 97 % 0 mm
17:49 3.3 °C 2.8 °C 1018.5 hPa Calm     97 % 0 mm
17:54 3.3 °C 2.8 °C 1018.5 hPa Calm     97 % 0 mm
17:59 3.3 °C 2.8 °C 1018.5 hPa Calm     97 % 0 mm
18:04 3.3 °C 2.8 °C 1018.5 hPa NE 0.8 km/h 5.6 km/h 97 % 0 mm
18:09 3.3 °C 2.9 °C 1018.5 hPa Calm     97 % 0 mm
18:14 3.3 °C 2.9 °C 1018.8 hPa Calm   1.9 km/h 97 % 0 mm
18:19 3.4 °C 2.9 °C 1018.8 hPa Calm   5.6 km/h 97 % 0 mm
18:24 3.4 °C 2.9 °C 1019.2 hPa Calm     97 % 0 mm
18:29 3.4 °C 2.9 °C 1018.8 hPa Calm     97 % 0.51 mm
18:34 3.4 °C 2.9 °C 1018.5 hPa Calm     97 % 0.76 mm
18:39 3.4 °C 2.9 °C 1018.5 hPa Calm     97 % 1.27 mm
18:44 3.3 °C 2.9 °C 1018.2 hPa Calm     97 % 1.78 mm
18:49 3.3 °C 2.9 °C 1017.8 hPa Calm     97 % 1.78 mm
18:54 3.3 °C 2.9 °C 1017.8 hPa Calm     97 % 2.03 mm
18:59 3.3 °C 2.9 °C 1017.5 hPa Calm     97 % 2.03 mm
19:04 3.3 °C 2.8 °C 1017.5 hPa Calm     97 % 2.03 mm
19:09 3.3 °C 2.8 °C 1017.5 hPa Calm     97 % 2.03 mm
19:14 3.3 °C 2.8 °C 1017.2 hPa Calm     97 % 2.03 mm
19:20 3.3 °C 2.8 °C 1017.5 hPa NNE 0.3 km/h 1.9 km/h 97 % 2.03 mm
19:25 3.3 °C 2.8 °C 1017.5 hPa Calm     97 % 2.03 mm
19:30 3.3 °C 2.8 °C 1017.5 hPa Calm     97 % 1.52 mm
19:35 3.3 °C 2.8 °C 1017.2 hPa Calm     97 % 1.02 mm
19:40 3.3 °C 2.8 °C 1016.8 hPa Calm     97 % 0.51 mm
19:45 3.3 °C 2.8 °C 1016.5 hPa Calm     97 % 0.25 mm
19:50 3.3 °C 2.8 °C 1016.5 hPa Calm     97 % 0 mm
19:55 3.3 °C 2.8 °C 1016.1 hPa Calm     97 % 0 mm
20:00 3.3 °C 2.8 °C 1015.8 hPa Calm     97 % 0 mm
20:05 3.3 °C 2.8 °C 1015.8 hPa Calm     97 % 0 mm
20:10 3.2 °C 2.8 °C 1016.1 hPa NNE 0.5 km/h 3.7 km/h 97 % 0 mm
20:15 3.3 °C 2.8 °C 1016.1 hPa NNW 0.8 km/h 3.7 km/h 97 % 0 mm
20:20 3.3 °C 2.8 °C 1016.1 hPa NNW 0.5 km/h 5.6 km/h 97 % 0 mm
20:25 3.2 °C 2.8 °C 1015.8 hPa Calm   5.6 km/h 97 % 0 mm
20:31 3.2 °C 2.8 °C 1015.8 hPa Calm   1.6 km/h 97 % 0 mm
20:36 3.2 °C 2.8 °C 1015.8 hPa Calm     97 % 0 mm
20:41 3.2 °C 2.8 °C 1015.8 hPa Calm   1.6 km/h 97 % 0 mm
20:46 3.2 °C 2.7 °C 1015.8 hPa Calm   3.2 km/h 97 % 0 mm
20:51 3.2 °C 2.7 °C 1015.8 hPa Calm     97 % 0 mm
20:56 3.2 °C 2.7 °C 1015.8 hPa NW 1.6 km/h 4.8 km/h 97 % 0 mm
21:01 3.2 °C 2.7 °C 1016.1 hPa Calm   1.9 km/h 97 % 0 mm
21:06 3.1 °C 2.7 °C 1015.8 hPa NW 1.6 km/h 6.4 km/h 97 % 0 mm
21:11 3.1 °C 2.7 °C 1015.8 hPa Calm   3.2 km/h 97 % 0 mm
21:16 3.1 °C 2.6 °C 1015.8 hPa WNW 1.1 km/h 5.6 km/h 97 % 0 mm
21:21 3.1 °C 2.6 °C 1015.5 hPa Calm   4.8 km/h 97 % 0 mm
21:26 3.1 °C 2.6 °C 1015.5 hPa Calm   1.6 km/h 97 % 0 mm
21:31 3.1 °C 2.6 °C 1015.5 hPa Calm   3.2 km/h 97 % 0 mm
21:36 3.1 °C 2.6 °C 1015.1 hPa Calm   1.6 km/h 97 % 0 mm
21:41 3.1 °C 2.6 °C 1014.8 hPa Calm   3.7 km/h 97 % 0 mm
21:46 3.1 °C 2.6 °C 1014.4 hPa WNW 1.6 km/h 4.8 km/h 97 % 0 mm
21:51 3.1 °C 2.6 °C 1014.8 hPa West 1.6 km/h 6.4 km/h 97 % 0 mm
21:56 3.1 °C 2.7 °C 1014.4 hPa West 1.6 km/h 4.8 km/h 97 % 0 mm
22:01 3.2 °C 2.7 °C 1014.1 hPa West 1 km/h 5.6 km/h 97 % 0 mm
22:06 3.2 °C 2.7 °C 1014.1 hPa Calm     97 % 0 mm
22:11 3.2 °C 2.7 °C 1013.8 hPa Calm     97 % 0 mm
22:13 3.2 °C 2.7 °C 1014.1 hPa Calm     97 % 0 mm
22:18 3.2 °C 2.8 °C 1014.1 hPa West 0.2 km/h 1.9 km/h 97 % 0 mm
22:23 3.2 °C 2.8 °C 1014.1 hPa Calm     97 % 0 mm
22:28 3.3 °C 2.8 °C 1014.1 hPa Calm   1.9 km/h 97 % 0 mm
22:33 3.3 °C 2.9 °C 1013.8 hPa West 1.3 km/h 5.6 km/h 97 % 0 mm
22:38 3.3 °C 2.9 °C 1013.8 hPa West 0.5 km/h 3.2 km/h 97 % 0 mm
22:43 3.4 °C 2.9 °C 1013.4 hPa West 0.3 km/h   97 % 0 mm
22:48 3.4 °C 3 °C 1013.8 hPa West 2.6 km/h 3.7 km/h 97 % 0 mm
22:53 3.4 °C 3 °C 1013.4 hPa Calm     97 % 0 mm
22:58 3.5 °C 3.1 °C 1013.4 hPa Calm     97 % 0 mm
23:03 3.6 °C 3.1 °C 1013.4 hPa West 1 km/h 3.7 km/h 97 % 0 mm
23:08 3.6 °C 3.1 °C 1013.4 hPa WSW 0.5 km/h 5.6 km/h 97 % 0 mm
23:14 3.6 °C 3.2 °C 1013.4 hPa WSW 0.5 km/h 1.9 km/h 97 % 0 mm
23:19 3.7 °C 3.2 °C 1013.4 hPa WSW 1.3 km/h 3.7 km/h 97 % 0 mm
23:24 3.7 °C 3.3 °C 1013.4 hPa WSW 1.6 km/h 3.7 km/h 97 % 0 mm
23:29 3.8 °C 3.5 °C 1013.1 hPa Calm     98 % 0 mm
23:34 3.8 °C 3.6 °C 1013.1 hPa Calm   1.9 km/h 98 % 0 mm
23:39 3.9 °C 3.6 °C 1013.1 hPa WSW 1.4 km/h 4.8 km/h 98 % 0 mm
23:44 3.9 °C 3.5 °C 1012.8 hPa Calm     97 % 0 mm
23:49 4 °C 3.6 °C 1013.1 hPa Calm   1.9 km/h 97 % 0 mm
23:54 4 °C 3.6 °C 1012.8 hPa Calm     97 % 0 mm
23:59 4.1 °C 3.6 °C 1012.8 hPa Calm     97 % 0 mm
Crab Meadow Weather
Compliments of Weather Underground - 3 mb

Script developed by  Jim McMurry - jmcmurry@mwt.net Adapted for the template by  Wim van der Kuil - Leuven-Template.eu

Weather Terms: Blowing Snow Advisory - Widespread blowing snow with winds 25 to 35 mph, occasionally reducing visibility to 1/4 mile or less.